Time,TemperatureF,DewpointF,PressureIn,WindDirection,WindDirectionDegrees,WindSpeedMPH,WindSpeedGustMPH,Humidity,HourlyPrecipIn,Conditions,Clouds,dailyrainin,SoftwareType,DateUTC
2013-02-21 00:00:00,19.2,11.7,29.19,WNW,288,0.0,3.0,72,0.00,,,0.00,meteohub,2013-02-21 05:00:00,
2013-02-21 00:01:00,19.2,11.7,29.19,WNW,295,0.0,3.0,72,0.00,,,0.00,meteohub,2013-02-21 05:01:00,
2013-02-21 00:03:00,19.2,11.7,29.20,WNW,295,0.0,3.0,72,0.00,,,0.00,meteohub,2013-02-21 05:03:00,
2013-02-21 00:05:00,19.2,11.7,29.20,SW,216,0.0,3.0,72,0.00,,,0.00,meteohub,2013-02-21 05:05:00,
2013-02-21 00:10:00,19.2,12.0,29.21,West,281,0.0,1.0,73,0.00,,,0.00,meteohub,2013-02-21 05:10:00,
2013-02-21 00:16:00,19.2,12.4,29.20,ENE,65,0.0,3.0,74,0.00,,,0.00,meteohub,2013-02-21 05:16:00,
2013-02-21 00:21:00,19.6,12.4,29.20,NE,49,0.0,3.0,73,0.00,,,0.00,meteohub,2013-02-21 05:21:00,
2013-02-21 00:26:00,19.8,12.6,29.19,WSW,252,0.0,3.0,73,0.00,,,0.00,meteohub,2013-02-21 05:26:00,
2013-02-21 00:31:00,19.8,12.2,29.19,NW,307,1.0,3.0,72,0.00,,,0.00,meteohub,2013-02-21 05:31:00,
2013-02-21 00:36:00,19.9,12.7,29.18,WSW,238,0.0,2.0,73,0.00,,,0.00,meteohub,2013-02-21 05:36:00,
2013-02-21 00:41:00,20.1,12.6,29.19,NNE,32,2.0,2.0,72,0.00,,,0.00,meteohub,2013-02-21 05:41:00,
2013-02-21 00:46:00,20.1,12.6,29.19,WNW,293,0.0,3.0,72,0.00,,,0.00,meteohub,2013-02-21 05:46:00,
2013-02-21 00:52:00,20.5,12.9,29.19,South,179,0.0,5.0,72,0.00,,,0.00,meteohub,2013-02-21 05:52:00,
2013-02-21 00:57:00,20.5,12.9,29.19,ESE,109,0.0,5.0,72,0.00,,,0.00,meteohub,2013-02-21 05:57:00,
2013-02-21 01:02:00,20.5,12.9,29.19,SE,129,1.0,5.0,72,0.00,,,0.00,meteohub,2013-02-21 06:02:00,
2013-02-21 01:07:00,20.5,12.6,29.18,South,170,0.0,4.0,71,0.00,,,0.00,meteohub,2013-02-21 06:07:00,
2013-02-21 01:12:00,20.5,12.9,29.18,NNW,335,1.0,5.0,72,0.00,,,0.00,meteohub,2013-02-21 06:12:00,
2013-02-21 01:17:00,20.5,12.9,29.18,North,359,0.0,5.0,72,0.00,,,0.00,meteohub,2013-02-21 06:17:00,
2013-02-21 01:22:00,20.5,12.9,29.18,SSE,165,0.0,5.0,72,0.00,,,0.00,meteohub,2013-02-21 06:22:00,
2013-02-21 01:27:00,20.5,12.9,29.18,SE,136,0.0,3.0,72,0.00,,,0.00,meteohub,2013-02-21 06:27:00,
2013-02-21 01:32:00,20.3,12.7,29.18,SSW,212,1.0,1.0,72,0.00,,,0.00,meteohub,2013-02-21 06:32:00,
2013-02-21 01:37:00,20.1,12.9,29.19,SW,222,0.0,4.0,73,0.00,,,0.00,meteohub,2013-02-21 06:37:00,
2013-02-21 01:42:00,19.9,12.7,29.18,SSE,160,1.0,4.0,73,0.00,,,0.00,meteohub,2013-02-21 06:42:00,
2013-02-21 01:47:00,19.9,12.7,29.18,East,84,0.0,4.0,73,0.00,,,0.00,meteohub,2013-02-21 06:47:00,
2013-02-21 01:52:00,19.8,12.7,29.19,NE,56,0.0,3.0,74,0.00,,,0.00,meteohub,2013-02-21 06:52:00,
2013-02-21 01:57:00,19.8,12.7,29.19,SSE,162,1.0,3.0,74,0.00,,,0.00,meteohub,2013-02-21 06:57:00,
2013-02-21 02:02:00,19.8,12.7,29.18,SE,139,0.0,4.0,74,0.00,,,0.00,meteohub,2013-02-21 07:02:00,
2013-02-21 02:08:00,19.8,12.6,29.19,WNW,291,0.0,4.0,73,0.00,,,0.00,meteohub,2013-02-21 07:08:00,
2013-02-21 02:13:00,19.8,12.7,29.18,SW,233,0.0,4.0,74,0.00,,,0.00,meteohub,2013-02-21 07:13:00,
2013-02-21 02:18:00,19.9,12.9,29.18,ENE,75,0.0,3.0,74,0.00,,,0.00,meteohub,2013-02-21 07:18:00,
2013-02-21 02:23:00,19.8,13.1,29.18,SE,134,1.0,3.0,75,0.00,,,0.00,meteohub,2013-02-21 07:23:00,
2013-02-21 02:28:00,19.8,12.7,29.19,NNE,22,2.0,3.0,74,0.00,,,0.00,meteohub,2013-02-21 07:28:00,
2013-02-21 02:33:00,19.8,12.6,29.19,NNW,329,0.0,5.0,73,0.00,,,0.00,meteohub,2013-02-21 07:33:00,
2013-02-21 02:38:00,19.6,12.4,29.19,WNW,294,0.0,5.0,73,0.00,,,0.00,meteohub,2013-02-21 07:38:00,
2013-02-21 02:43:00,19.4,12.6,29.19,SW,221,0.0,5.0,74,0.00,,,0.00,meteohub,2013-02-21 07:43:00,
2013-02-21 02:48:00,19.2,12.4,29.19,SSW,201,0.0,1.0,74,0.00,,,0.00,meteohub,2013-02-21 07:48:00,
2013-02-21 02:53:00,19.0,12.2,29.18,SSE,156,0.0,2.0,74,0.00,,,0.00,meteohub,2013-02-21 07:53:00,
2013-02-21 02:58:00,18.9,12.0,29.19,SSW,194,0.0,4.0,74,0.00,,,0.00,meteohub,2013-02-21 07:58:00,
2013-02-21 03:03:00,18.9,12.2,29.19,WSW,247,0.0,4.0,75,0.00,,,0.00,meteohub,2013-02-21 08:03:00,
2013-02-21 03:08:00,18.9,12.2,29.18,SSW,207,1.0,4.0,75,0.00,,,0.00,meteohub,2013-02-21 08:08:00,
2013-02-21 03:13:00,18.9,12.2,29.18,WSW,252,0.0,4.0,75,0.00,,,0.00,meteohub,2013-02-21 08:13:00,
2013-02-21 03:18:00,18.9,12.2,29.18,SW,214,0.0,4.0,75,0.00,,,0.00,meteohub,2013-02-21 08:18:00,
2013-02-21 03:24:00,18.7,12.0,29.18,SW,214,0.0,3.0,75,0.00,,,0.00,meteohub,2013-02-21 08:24:00,
2013-02-21 03:29:00,18.7,12.0,29.19,SSE,147,0.0,3.0,75,0.00,,,0.00,meteohub,2013-02-21 08:29:00,
2013-02-21 03:34:00,18.5,12.2,29.19,East,81,0.0,1.0,76,0.00,,,0.00,meteohub,2013-02-21 08:34:00,
2013-02-21 03:39:00,18.3,12.0,29.19,East,81,0.0,1.0,76,0.00,,,0.00,meteohub,2013-02-21 08:39:00,
2013-02-21 03:44:00,18.3,12.0,29.19,East,80,0.0,1.0,76,0.00,,,0.00,meteohub,2013-02-21 08:44:00,
2013-02-21 03:49:00,18.1,11.8,29.19,East,81,0.0,1.0,76,0.00,,,0.00,meteohub,2013-02-21 08:49:00,
2013-02-21 03:54:00,18.0,11.7,29.19,East,81,0.0,1.0,76,0.00,,,0.00,meteohub,2013-02-21 08:54:00,
2013-02-21 03:59:00,18.0,11.7,29.19,WSW,242,1.0,1.0,76,0.00,,,0.00,meteohub,2013-02-21 08:59:00,
2013-02-21 04:04:00,18.1,12.2,29.20,West,260,0.0,1.0,77,0.00,,,0.00,meteohub,2013-02-21 09:04:00,
2013-02-21 04:09:00,18.1,12.2,29.20,SE,139,0.0,3.0,77,0.00,,,0.00,meteohub,2013-02-21 09:09:00,
2013-02-21 04:14:00,18.3,12.9,29.20,WSW,252,0.0,3.0,79,0.00,,,0.00,meteohub,2013-02-21 09:14:00,
2013-02-21 04:19:00,18.5,13.1,29.20,ENE,74,0.0,1.0,79,0.00,,,0.00,meteohub,2013-02-21 09:19:00,
2013-02-21 04:24:00,18.9,13.5,29.20,ENE,74,1.0,3.0,79,0.00,,,0.00,meteohub,2013-02-21 09:24:00,
2013-02-21 04:29:00,18.9,13.5,29.20,SE,126,0.0,3.0,79,0.00,,,0.00,meteohub,2013-02-21 09:29:00,
2013-02-21 04:35:00,19.2,13.3,29.20,SSE,162,0.0,3.0,77,0.00,,,0.00,meteohub,2013-02-21 09:35:00,
2013-02-21 04:40:00,19.4,13.5,29.20,South,184,0.0,2.0,77,0.00,,,0.00,meteohub,2013-02-21 09:40:00,
2013-02-21 04:45:00,19.6,13.6,29.20,ENE,72,1.0,2.0,77,0.00,,,0.00,meteohub,2013-02-21 09:45:00,
2013-02-21 04:50:00,19.8,13.6,29.20,WNW,301,0.0,3.0,77,0.00,,,0.00,meteohub,2013-02-21 09:50:00,
2013-02-21 04:55:00,19.8,13.6,29.20,ENE,70,0.0,3.0,77,0.00,,,0.00,meteohub,2013-02-21 09:55:00,
2013-02-21 05:00:00,19.9,13.8,29.20,ENE,78,0.0,3.0,77,0.00,,,0.00,meteohub,2013-02-21 10:00:00,
2013-02-21 05:05:00,19.9,13.6,29.21,WNW,295,0.0,2.0,76,0.00,,,0.00,meteohub,2013-02-21 10:05:00,
2013-02-21 05:10:00,19.9,13.6,29.20,WSW,239,0.0,3.0,76,0.00,,,0.00,meteohub,2013-02-21 10:10:00,
2013-02-21 05:15:00,20.1,13.8,29.20,NNE,27,0.0,3.0,76,0.00,,,0.00,meteohub,2013-02-21 10:15:00,
2013-02-21 05:21:00,20.1,13.8,29.20,South,172,0.0,4.0,76,0.00,,,0.00,meteohub,2013-02-21 10:21:00,
2013-02-21 05:26:00,20.1,14.0,29.20,West,276,1.0,4.0,77,0.00,,,0.00,meteohub,2013-02-21 10:26:00,
2013-02-21 05:31:00,20.1,13.8,29.21,West,260,0.0,4.0,76,0.00,,,0.00,meteohub,2013-02-21 10:31:00,
2013-02-21 05:36:00,20.1,13.8,29.21,West,281,0.0,4.0,76,0.00,,,0.00,meteohub,2013-02-21 10:36:00,
2013-02-21 05:41:00,19.9,13.6,29.21,North,358,0.0,4.0,76,0.00,,,0.00,meteohub,2013-02-21 10:41:00,
2013-02-21 05:46:00,19.8,13.5,29.21,SSW,204,0.0,4.0,76,0.00,,,0.00,meteohub,2013-02-21 10:46:00,
2013-02-21 05:51:00,19.8,13.5,29.20,SW,217,0.0,2.0,76,0.00,,,0.00,meteohub,2013-02-21 10:51:00,
2013-02-21 05:56:00,19.6,13.6,29.21,West,259,0.0,3.0,77,0.00,,,0.00,meteohub,2013-02-21 10:56:00,
2013-02-21 06:01:00,19.6,13.6,29.21,WNW,295,1.0,3.0,77,0.00,,,0.00,meteohub,2013-02-21 11:01:00,
2013-02-21 06:06:00,19.6,13.6,29.21,WSW,238,0.0,3.0,77,0.00,,,0.00,meteohub,2013-02-21 11:06:00,
2013-02-21 06:11:00,19.6,13.6,29.21,West,278,1.0,4.0,77,0.00,,,0.00,meteohub,2013-02-21 11:11:00,
2013-02-21 06:17:00,19.6,13.6,29.21,West,264,0.0,4.0,77,0.00,,,0.00,meteohub,2013-02-21 11:17:00,
2013-02-21 06:22:00,19.4,13.5,29.21,SSW,205,0.0,3.0,77,0.00,,,0.00,meteohub,2013-02-21 11:22:00,
2013-02-21 06:27:00,19.2,13.3,29.21,ESE,104,0.0,3.0,77,0.00,,,0.00,meteohub,2013-02-21 11:27:00,
2013-02-21 06:32:00,19.2,13.3,29.21,ENE,67,0.0,3.0,77,0.00,,,0.00,meteohub,2013-02-21 11:32:00,
2013-02-21 06:37:00,19.0,13.1,29.21,SSE,147,0.0,1.0,77,0.00,,,0.00,meteohub,2013-02-21 11:37:00,
2013-02-21 06:42:00,19.0,13.3,29.21,WNW,295,1.0,1.0,78,0.00,,,0.00,meteohub,2013-02-21 11:42:00,
2013-02-21 06:47:00,18.9,13.1,29.21,North,1,0.0,1.0,78,0.00,,,0.00,meteohub,2013-02-21 11:47:00,
2013-02-21 06:52:00,18.9,13.1,29.22,NE,46,0.0,1.0,78,0.00,,,0.00,meteohub,2013-02-21 11:52:00,
2013-02-21 06:57:00,18.9,12.9,29.22,NE,46,0.0,1.0,77,0.00,,,0.00,meteohub,2013-02-21 11:57:00,
2013-02-21 07:02:00,18.9,13.1,29.22,SE,146,0.0,1.0,78,0.00,,,0.00,meteohub,2013-02-21 12:02:00,
2013-02-21 07:07:00,18.9,13.1,29.22,SSE,147,0.0,2.0,78,0.00,,,0.00,meteohub,2013-02-21 12:07:00,
2013-02-21 07:12:00,18.9,13.1,29.22,ESE,123,0.0,2.0,78,0.00,,,0.00,meteohub,2013-02-21 12:12:00,
2013-02-21 07:17:00,19.0,13.3,29.22,South,181,0.0,2.0,78,0.00,,,0.00,meteohub,2013-02-21 12:17:00,
2013-02-21 07:22:00,19.2,13.5,29.22,SSW,198,0.0,2.0,78,0.00,,,0.00,meteohub,2013-02-21 12:22:00,
2013-02-21 07:27:00,19.6,14.2,29.22,SSW,199,0.0,2.0,79,0.00,,,0.00,meteohub,2013-02-21 12:27:00,
2013-02-21 07:32:00,19.8,14.0,29.22,SSW,198,0.0,2.0,78,0.00,,,0.00,meteohub,2013-02-21 12:32:00,
2013-02-21 07:37:00,19.9,13.8,29.22,WSW,249,0.0,0.0,77,0.00,,,0.00,meteohub,2013-02-21 12:37:00,
2013-02-21 07:42:00,20.3,14.0,29.23,SSW,200,0.0,1.0,76,0.00,,,0.00,meteohub,2013-02-21 12:42:00,
2013-02-21 07:47:00,20.7,14.4,29.22,SSE,158,2.0,2.0,76,0.00,,,0.00,meteohub,2013-02-21 12:47:00,
2013-02-21 07:52:00,20.8,14.5,29.22,ENE,72,0.0,3.0,76,0.00,,,0.00,meteohub,2013-02-21 12:52:00,
2013-02-21 07:57:00,21.2,14.2,29.22,SW,218,1.0,3.0,74,0.00,,,0.00,meteohub,2013-02-21 12:57:00,
2013-02-21 08:02:00,21.6,14.5,29.22,East,86,0.0,3.0,74,0.00,,,0.00,meteohub,2013-02-21 13:02:00,
2013-02-21 08:07:00,21.7,14.4,29.22,East,91,0.0,6.0,73,0.00,,,0.00,meteohub,2013-02-21 13:07:00,
2013-02-21 08:12:00,22.3,14.7,29.22,WSW,253,1.0,6.0,72,0.00,,,0.00,meteohub,2013-02-21 13:12:00,
2013-02-21 08:17:00,22.6,14.4,29.22,WSW,242,0.0,6.0,70,0.00,,,0.00,meteohub,2013-02-21 13:17:00,
2013-02-21 08:22:00,23.2,14.9,29.21,ENE,70,4.0,4.0,70,0.00,,,0.00,meteohub,2013-02-21 13:22:00,
2013-02-21 08:27:00,23.7,14.7,29.22,SSE,165,3.0,10.0,68,0.00,,,0.00,meteohub,2013-02-21 13:27:00,
2013-02-21 08:32:00,24.3,15.3,29.22,East,83,3.0,10.0,68,0.00,,,0.00,meteohub,2013-02-21 13:32:00,
2013-02-21 08:37:00,25.0,15.6,29.22,SE,129,2.0,10.0,67,0.00,,,0.00,meteohub,2013-02-21 13:37:00,
2013-02-21 08:42:00,25.7,14.9,29.22,ENE,75,0.0,6.0,63,0.00,,,0.00,meteohub,2013-02-21 13:42:00,
2013-02-21 08:47:00,26.4,15.6,29.22,ENE,65,1.0,3.0,63,0.00,,,0.00,meteohub,2013-02-21 13:47:00,
2013-02-21 08:52:00,26.8,15.4,29.22,SW,214,1.0,4.0,62,0.00,,,0.00,meteohub,2013-02-21 13:52:00,
2013-02-21 08:57:00,26.6,14.5,29.22,SSE,167,2.0,5.0,60,0.00,,,0.00,meteohub,2013-02-21 13:57:00,
2013-02-21 09:02:00,27.0,14.9,29.22,ESE,113,0.0,5.0,60,0.00,,,0.00,meteohub,2013-02-21 14:02:00,
2013-02-21 09:07:00,27.5,15.1,29.22,East,87,4.0,5.0,59,0.00,,,0.00,meteohub,2013-02-21 14:07:00,
2013-02-21 09:12:00,27.5,14.7,29.22,WNW,283,1.0,7.0,58,0.00,,,0.00,meteohub,2013-02-21 14:12:00,
2013-02-21 09:17:00,27.7,14.9,29.22,SSE,167,0.0,7.0,58,0.00,,,0.00,meteohub,2013-02-21 14:17:00,
2013-02-21 09:22:00,27.7,14.9,29.22,ENE,65,2.0,7.0,58,0.00,,,0.00,meteohub,2013-02-21 14:22:00,
2013-02-21 09:27:00,27.3,14.5,29.22,East,81,1.0,4.0,58,0.00,,,0.00,meteohub,2013-02-21 14:27:00,
2013-02-21 09:32:00,26.4,13.3,29.22,SE,132,0.0,7.0,57,0.00,,,0.00,meteohub,2013-02-21 14:32:00,
2013-02-21 09:37:00,25.5,13.1,29.23,North,356,2.0,7.0,59,0.00,,,0.00,meteohub,2013-02-21 14:37:00,
2013-02-21 09:42:00,25.2,13.3,29.23,West,269,0.0,7.0,60,0.00,,,0.00,meteohub,2013-02-21 14:42:00,
2013-02-21 09:47:00,24.8,13.3,29.23,East,81,2.0,4.0,61,0.00,,,0.00,meteohub,2013-02-21 14:47:00,
2013-02-21 09:52:00,24.8,13.3,29.23,SSE,156,2.0,4.0,61,0.00,,,0.00,meteohub,2013-02-21 14:52:00,
2013-02-21 09:57:00,25.3,14.2,29.23,East,91,2.0,7.0,62,0.00,,,0.00,meteohub,2013-02-21 14:57:00,
2013-02-21 10:02:00,26.2,14.5,29.22,NNE,19,0.0,7.0,61,0.00,,,0.00,meteohub,2013-02-21 15:02:00,
2013-02-21 10:07:00,27.5,15.1,29.23,NNE,32,3.0,7.0,59,0.00,,,0.00,meteohub,2013-02-21 15:07:00,
2013-02-21 10:12:00,28.0,15.3,29.22,NW,325,0.0,5.0,58,0.00,,,0.00,meteohub,2013-02-21 15:12:00,
2013-02-21 10:17:00,28.9,15.3,29.22,NNW,328,1.0,5.0,56,0.00,,,0.00,meteohub,2013-02-21 15:17:00,
2013-02-21 10:22:00,29.3,15.6,29.22,ENE,68,2.0,5.0,56,0.00,,,0.00,meteohub,2013-02-21 15:22:00,
2013-02-21 10:27:00,29.3,14.7,29.22,SSE,162,1.0,4.0,54,0.00,,,0.00,meteohub,2013-02-21 15:27:00,
2013-02-21 10:32:00,29.3,14.7,29.22,WNW,302,0.0,7.0,54,0.00,,,0.00,meteohub,2013-02-21 15:32:00,
2013-02-21 10:37:00,29.5,15.3,29.22,NNW,330,0.0,7.0,55,0.00,,,0.00,meteohub,2013-02-21 15:37:00,
2013-02-21 10:42:00,29.3,15.6,29.22,ENE,72,1.0,7.0,56,0.00,,,0.00,meteohub,2013-02-21 15:42:00,
2013-02-21 10:47:00,29.5,16.2,29.23,ENE,63,0.0,4.0,57,0.00,,,0.00,meteohub,2013-02-21 15:47:00,
2013-02-21 10:52:00,30.0,17.1,29.23,ENE,72,1.0,4.0,58,0.00,,,0.00,meteohub,2013-02-21 15:52:00,
2013-02-21 10:57:00,30.7,17.2,29.23,SSW,205,2.0,7.0,57,0.00,,,0.00,meteohub,2013-02-21 15:57:00,
2013-02-21 11:02:00,31.3,16.5,29.23,ENE,63,2.0,9.0,54,0.00,,,0.00,meteohub,2013-02-21 16:02:00,
2013-02-21 11:07:00,31.1,15.1,29.23,North,8,4.0,9.0,51,0.00,,,0.00,meteohub,2013-02-21 16:07:00,
2013-02-21 11:12:00,30.6,16.3,29.24,North,349,1.0,9.0,55,0.00,,,0.00,meteohub,2013-02-21 16:12:00,
2013-02-21 11:17:00,30.2,17.2,29.24,NW,307,1.0,8.0,58,0.00,,,0.00,meteohub,2013-02-21 16:17:00,
2013-02-21 11:22:00,30.6,16.3,29.24,NNW,337,2.0,8.0,55,0.00,,,0.00,meteohub,2013-02-21 16:22:00,
2013-02-21 11:27:00,30.6,16.3,29.24,NW,314,3.0,6.0,55,0.00,,,0.00,meteohub,2013-02-21 16:27:00,
2013-02-21 11:32:00,30.4,16.5,29.24,NW,307,0.0,6.0,56,0.00,,,0.00,meteohub,2013-02-21 16:32:00,
2013-02-21 11:37:00,30.6,16.7,29.24,NNW,328,5.0,5.0,56,0.00,,,0.00,meteohub,2013-02-21 16:37:00,
2013-02-21 11:42:00,30.6,16.7,29.24,NNW,339,3.0,5.0,56,0.00,,,0.00,meteohub,2013-02-21 16:42:00,
2013-02-21 11:47:00,30.0,15.8,29.25,NW,311,2.0,8.0,55,0.00,,,0.00,meteohub,2013-02-21 16:47:00,
2013-02-21 11:52:00,29.8,16.9,29.25,NNE,13,4.0,8.0,58,0.00,,,0.00,meteohub,2013-02-21 16:52:00,
2013-02-21 11:57:00,30.0,16.7,29.24,NNW,340,2.0,8.0,57,0.00,,,0.00,meteohub,2013-02-21 16:57:00,
2013-02-21 12:02:00,29.8,16.0,29.24,NW,326,3.0,7.0,56,0.00,,,0.00,meteohub,2013-02-21 17:02:00,
2013-02-21 12:07:00,30.0,15.8,29.24,East,87,1.0,5.0,55,0.00,,,0.00,meteohub,2013-02-21 17:07:00,
2013-02-21 12:12:00,30.6,17.1,29.24,North,356,4.0,5.0,57,0.00,,,0.00,meteohub,2013-02-21 17:12:00,
2013-02-21 12:17:00,30.6,16.3,29.24,ENE,72,2.0,6.0,55,0.00,,,0.00,meteohub,2013-02-21 17:17:00,
2013-02-21 12:22:00,30.9,16.7,29.24,North,8,1.0,6.0,55,0.00,,,0.00,meteohub,2013-02-21 17:22:00,
2013-02-21 12:27:00,30.6,16.7,29.24,NNE,29,1.0,6.0,56,0.00,,,0.00,meteohub,2013-02-21 17:27:00,
2013-02-21 12:32:00,30.4,17.1,29.24,ENE,67,4.0,4.0,57,0.00,,,0.00,meteohub,2013-02-21 17:32:00,
2013-02-21 12:37:00,30.6,16.0,29.24,NNE,23,2.0,5.0,54,0.00,,,0.00,meteohub,2013-02-21 17:37:00,
2013-02-21 12:42:00,30.0,16.2,29.24,SW,235,2.0,7.0,56,0.00,,,0.00,meteohub,2013-02-21 17:42:00,
2013-02-21 12:47:00,30.0,16.7,29.23,NNW,330,1.0,7.0,57,0.00,,,0.00,meteohub,2013-02-21 17:47:00,
2013-02-21 12:52:00,30.4,17.1,29.23,SSE,156,1.0,7.0,57,0.00,,,0.00,meteohub,2013-02-21 17:52:00,
2013-02-21 12:57:00,30.6,17.1,29.23,NW,315,1.0,6.0,57,0.00,,,0.00,meteohub,2013-02-21 17:57:00,
2013-02-21 13:02:00,30.7,16.9,29.23,NNW,333,5.0,6.0,56,0.00,,,0.00,meteohub,2013-02-21 18:02:00,
2013-02-21 13:07:00,30.4,16.2,29.23,NW,324,3.0,6.0,55,0.00,,,0.00,meteohub,2013-02-21 18:07:00,
2013-02-21 13:12:00,30.0,16.7,29.23,North,352,3.0,6.0,57,0.00,,,0.00,meteohub,2013-02-21 18:12:00,
2013-02-21 13:17:00,30.0,17.1,29.23,SW,232,2.0,6.0,58,0.00,,,0.00,meteohub,2013-02-21 18:17:00,
2013-02-21 13:22:00,30.4,17.1,29.23,WNW,302,2.0,6.0,57,0.00,,,0.00,meteohub,2013-02-21 18:22:00,
2013-02-21 13:27:00,30.4,16.5,29.23,NE,54,3.0,5.0,56,0.00,,,0.00,meteohub,2013-02-21 18:27:00,
2013-02-21 13:32:00,30.0,17.1,29.22,NW,323,4.0,5.0,58,0.00,,,0.00,meteohub,2013-02-21 18:32:00,
2013-02-21 13:37:00,29.7,16.7,29.23,NW,313,6.0,6.0,58,0.00,,,0.00,meteohub,2013-02-21 18:37:00,
2013-02-21 13:42:00,29.5,16.2,29.23,NW,312,0.0,6.0,57,0.00,,,0.00,meteohub,2013-02-21 18:42:00,
2013-02-21 13:47:00,29.5,16.9,29.23,SE,139,1.0,6.0,59,0.00,,,0.00,meteohub,2013-02-21 18:47:00,
2013-02-21 13:52:00,29.5,16.5,29.24,NW,322,3.0,6.0,58,0.00,,,0.00,meteohub,2013-02-21 18:52:00,
2013-02-21 13:57:00,29.1,16.2,29.24,NNW,332,1.0,8.0,58,0.00,,,0.00,meteohub,2013-02-21 18:57:00,
2013-02-21 14:02:00,29.1,16.5,29.24,North,1,2.0,8.0,59,0.00,,,0.00,meteohub,2013-02-21 19:02:00,
2013-02-21 14:07:00,28.9,15.6,29.25,NE,43,3.0,8.0,57,0.00,,,0.00,meteohub,2013-02-21 19:07:00,
2013-02-21 14:12:00,28.9,16.3,29.25,NE,51,0.0,5.0,59,0.00,,,0.00,meteohub,2013-02-21 19:12:00,
2013-02-21 14:17:00,28.9,16.3,29.25,East,91,1.0,7.0,59,0.00,,,0.00,meteohub,2013-02-21 19:17:00,
2013-02-21 14:22:00,28.9,16.9,29.25,NW,307,0.0,7.0,60,0.00,,,0.00,meteohub,2013-02-21 19:22:00,
2013-02-21 14:27:00,29.1,17.4,29.25,West,277,0.0,7.0,61,0.00,,,0.00,meteohub,2013-02-21 19:27:00,
2013-02-21 14:33:00,29.1,16.9,29.25,WNW,287,0.0,4.0,60,0.00,,,0.00,meteohub,2013-02-21 19:33:00,
2013-02-21 14:38:00,29.3,17.1,29.25,WNW,298,0.0,5.0,60,0.00,,,0.00,meteohub,2013-02-21 19:38:00,
2013-02-21 14:43:00,29.1,17.4,29.26,NE,49,1.0,5.0,61,0.00,,,0.00,meteohub,2013-02-21 19:43:00,
2013-02-21 14:48:00,28.9,16.3,29.26,NE,41,3.0,4.0,59,0.00,,,0.00,meteohub,2013-02-21 19:48:00,
2013-02-21 14:53:00,28.6,16.5,29.26,NNE,20,2.0,5.0,60,0.00,,,0.00,meteohub,2013-02-21 19:53:00,
2013-02-21 14:58:00,28.6,16.5,29.26,NW,321,2.0,5.0,60,0.00,,,0.00,meteohub,2013-02-21 19:58:00,
2013-02-21 15:03:00,28.2,15.8,29.27,West,266,1.0,6.0,59,0.00,,,0.00,meteohub,2013-02-21 20:03:00,
2013-02-21 15:09:00,27.9,16.2,29.27,ENE,65,0.0,6.0,61,0.00,,,0.00,meteohub,2013-02-21 20:09:00,
2013-02-21 15:14:00,28.0,16.0,29.27,North,359,1.0,6.0,60,0.00,,,0.00,meteohub,2013-02-21 20:14:00,
2013-02-21 15:19:00,27.9,15.8,29.28,ENE,63,3.0,5.0,60,0.00,,,0.00,meteohub,2013-02-21 20:19:00,
2013-02-21 15:24:00,27.7,16.0,29.28,NNW,336,1.0,4.0,61,0.00,,,0.00,meteohub,2013-02-21 20:24:00,
2013-02-21 15:29:00,27.3,15.6,29.28,WSW,248,3.0,6.0,61,0.00,,,0.00,meteohub,2013-02-21 20:29:00,
2013-02-21 15:35:00,27.3,15.3,29.29,SE,142,1.0,6.0,60,0.00,,,0.00,meteohub,2013-02-21 20:35:00,
2013-02-21 15:40:00,27.1,15.8,29.30,NNE,27,0.0,6.0,62,0.00,,,0.00,meteohub,2013-02-21 20:40:00,
2013-02-21 15:45:00,27.1,16.2,29.30,NW,314,1.0,6.0,63,0.00,,,0.00,meteohub,2013-02-21 20:45:00,
2013-02-21 15:50:00,26.6,14.5,29.30,NW,323,3.0,6.0,60,0.00,,,0.00,meteohub,2013-02-21 20:50:00,
2013-02-21 15:55:00,26.2,15.1,29.31,NNE,30,2.0,6.0,62,0.00,,,0.00,meteohub,2013-02-21 20:55:00,
2013-02-21 16:00:00,26.1,14.5,29.30,East,93,2.0,6.0,61,0.00,,,0.00,meteohub,2013-02-21 21:00:00,
2013-02-21 16:05:00,25.9,15.4,29.31,East,85,1.0,5.0,64,0.00,,,0.00,meteohub,2013-02-21 21:05:00,
2013-02-21 16:10:00,25.7,14.9,29.30,North,6,2.0,6.0,63,0.00,,,0.00,meteohub,2013-02-21 21:10:00,
2013-02-21 16:16:00,25.3,14.9,29.31,NE,47,4.0,6.0,64,0.00,,,0.00,meteohub,2013-02-21 21:16:00,
2013-02-21 16:21:00,25.0,14.5,29.31,NNW,342,3.0,6.0,64,0.00,,,0.00,meteohub,2013-02-21 21:21:00,
2013-02-21 16:26:00,24.8,14.4,29.31,East,81,0.0,6.0,64,0.00,,,0.00,meteohub,2013-02-21 21:26:00,
2013-02-21 16:31:00,24.6,14.5,29.32,SE,134,0.0,5.0,65,0.00,,,0.00,meteohub,2013-02-21 21:31:00,
2013-02-21 16:36:00,24.6,14.5,29.33,North,8,0.0,4.0,65,0.00,,,0.00,meteohub,2013-02-21 21:36:00,
2013-02-21 16:41:00,24.3,13.8,29.34,NW,318,2.0,4.0,64,0.00,,,0.00,meteohub,2013-02-21 21:41:00,
2013-02-21 16:46:00,24.1,14.4,29.34,SW,219,1.0,7.0,66,0.00,,,0.00,meteohub,2013-02-21 21:46:00,
2013-02-21 16:52:00,23.7,13.6,29.34,NE,44,1.0,7.0,65,0.00,,,0.00,meteohub,2013-02-21 21:52:00,
2013-02-21 16:57:00,23.5,13.8,29.35,South,191,0.0,7.0,66,0.00,,,0.00,meteohub,2013-02-21 21:57:00,
2013-02-21 17:02:00,23.4,13.3,29.34,WNW,302,2.0,4.0,65,0.00,,,0.00,meteohub,2013-02-21 22:02:00,
2013-02-21 17:07:00,23.0,13.3,29.35,NW,326,1.0,6.0,66,0.00,,,0.00,meteohub,2013-02-21 22:07:00,
2013-02-21 17:12:00,22.6,12.9,29.36,NW,315,4.0,6.0,66,0.00,,,0.00,meteohub,2013-02-21 22:12:00,
2013-02-21 17:17:00,22.5,13.1,29.36,NW,325,4.0,4.0,67,0.00,,,0.00,meteohub,2013-02-21 22:17:00,
2013-02-21 17:22:00,22.3,12.9,29.37,West,277,0.0,5.0,67,0.00,,,0.00,meteohub,2013-02-21 22:22:00,
2013-02-21 17:27:00,22.1,13.1,29.37,East,91,2.0,5.0,68,0.00,,,0.00,meteohub,2013-02-21 22:27:00,
2013-02-21 17:32:00,21.9,13.3,29.38,WSW,256,0.0,4.0,69,0.00,,,0.00,meteohub,2013-02-21 22:32:00,
2013-02-21 17:37:00,21.7,13.1,29.38,SSE,165,2.0,4.0,69,0.00,,,0.00,meteohub,2013-02-21 22:37:00,
2013-02-21 17:42:00,21.6,13.3,29.39,NW,321,1.0,4.0,70,0.00,,,0.00,meteohub,2013-02-21 22:42:00,
2013-02-21 17:47:00,21.4,12.4,29.39,NW,318,3.0,4.0,68,0.00,,,0.00,meteohub,2013-02-21 22:47:00,
2013-02-21 17:52:00,21.0,12.4,29.39,NNE,24,0.0,6.0,69,0.00,,,0.00,meteohub,2013-02-21 22:52:00,
2013-02-21 17:57:00,21.0,12.4,29.39,SW,234,0.0,6.0,69,0.00,,,0.00,meteohub,2013-02-21 22:57:00,
2013-02-21 18:02:00,20.8,12.6,29.39,WNW,302,4.0,6.0,70,0.00,,,0.00,meteohub,2013-02-21 23:02:00,
2013-02-21 18:07:00,20.7,12.4,29.39,WNW,297,0.0,6.0,70,0.00,,,0.00,meteohub,2013-02-21 23:07:00,
2013-02-21 18:12:00,20.5,12.2,29.40,NNE,25,2.0,6.0,70,0.00,,,0.00,meteohub,2013-02-21 23:12:00,
2013-02-21 18:17:00,20.3,12.0,29.40,NNW,331,0.0,6.0,70,0.00,,,0.00,meteohub,2013-02-21 23:17:00,
2013-02-21 18:22:00,20.1,12.2,29.41,ENE,68,7.0,7.0,71,0.00,,,0.00,meteohub,2013-02-21 23:22:00,
2013-02-21 18:27:00,20.1,12.2,29.41,West,281,0.0,7.0,71,0.00,,,0.00,meteohub,2013-02-21 23:27:00,
2013-02-21 18:32:00,19.9,12.4,29.41,NW,315,0.0,7.0,72,0.00,,,0.00,meteohub,2013-02-21 23:32:00,
2013-02-21 18:37:00,19.8,12.2,29.42,West,264,0.0,7.0,72,0.00,,,0.00,meteohub,2013-02-21 23:37:00,
2013-02-21 18:42:00,19.6,12.4,29.42,NW,325,1.0,2.0,73,0.00,,,0.00,meteohub,2013-02-21 23:42:00,
2013-02-21 18:47:00,19.2,11.7,29.42,NE,56,0.0,2.0,72,0.00,,,0.00,meteohub,2013-02-21 23:47:00,
2013-02-21 18:52:00,19.2,12.0,29.42,NW,322,0.0,2.0,73,0.00,,,0.00,meteohub,2013-02-21 23:52:00,
2013-02-21 18:57:00,19.0,11.8,29.42,NE,34,3.0,3.0,73,0.00,,,0.00,meteohub,2013-02-21 23:57:00,
2013-02-21 19:02:00,19.2,12.0,29.42,NW,305,1.0,4.0,73,0.00,,,0.00,meteohub,2013-02-22 00:02:00,
2013-02-21 19:07:00,19.2,11.7,29.43,WNW,302,1.0,4.0,72,0.00,,,0.00,meteohub,2013-02-22 00:07:00,
2013-02-21 19:12:00,19.2,11.7,29.44,NNW,333,0.0,4.0,72,0.00,,,0.00,meteohub,2013-02-22 00:12:00,
2013-02-21 19:17:00,19.2,12.0,29.44,NNE,28,0.0,4.0,73,0.00,,,0.00,meteohub,2013-02-22 00:17:00,
2013-02-21 19:22:00,19.2,12.0,29.44,NNW,335,0.0,4.0,73,0.00,,,0.00,meteohub,2013-02-22 00:22:00,
2013-02-21 19:27:00,19.0,11.8,29.44,WSW,249,0.0,4.0,73,0.00,,,0.00,meteohub,2013-02-22 00:27:00,
2013-02-21 19:32:00,19.0,11.5,29.44,NNW,333,2.0,4.0,72,0.00,,,0.00,meteohub,2013-02-22 00:32:00,
2013-02-21 19:37:00,19.0,11.8,29.45,North,354,3.0,5.0,73,0.00,,,0.00,meteohub,2013-02-22 00:37:00,
2013-02-21 19:42:00,19.0,11.8,29.45,WNW,298,1.0,5.0,73,0.00,,,0.00,meteohub,2013-02-22 00:42:00,
2013-02-21 19:47:00,18.9,11.7,29.44,NNE,17,3.0,5.0,73,0.00,,,0.00,meteohub,2013-02-22 00:47:00,
2013-02-21 19:52:00,18.9,11.7,29.44,NNE,18,2.0,4.0,73,0.00,,,0.00,meteohub,2013-02-22 00:52:00,
2013-02-21 19:57:00,18.9,11.7,29.44,NW,319,0.0,7.0,73,0.00,,,0.00,meteohub,2013-02-22 00:57:00,
2013-02-21 20:02:00,18.7,11.5,29.45,NNW,330,0.0,7.0,73,0.00,,,0.00,meteohub,2013-02-22 01:02:00,
2013-02-21 20:07:00,18.7,11.8,29.46,WNW,289,0.0,7.0,74,0.00,,,0.00,meteohub,2013-02-22 01:07:00,
2013-02-21 20:12:00,18.5,11.7,29.46,NW,318,0.0,2.0,74,0.00,,,0.00,meteohub,2013-02-22 01:12:00,
2013-02-21 20:17:00,18.3,11.7,29.47,NE,37,0.0,2.0,75,0.00,,,0.00,meteohub,2013-02-22 01:17:00,
2013-02-21 20:22:00,18.1,11.5,29.48,West,267,1.0,2.0,75,0.00,,,0.00,meteohub,2013-02-22 01:22:00,
2013-02-21 20:27:00,18.3,11.7,29.48,East,88,0.0,3.0,75,0.00,,,0.00,meteohub,2013-02-22 01:27:00,
2013-02-21 20:32:00,18.5,11.8,29.49,ENE,75,0.0,4.0,75,0.00,,,0.00,meteohub,2013-02-22 01:32:00,
2013-02-21 20:37:00,18.5,11.7,29.49,NW,309,0.0,4.0,74,0.00,,,0.00,meteohub,2013-02-22 01:37:00,
2013-02-21 20:42:00,18.5,11.8,29.49,NE,53,0.0,2.0,75,0.00,,,0.00,meteohub,2013-02-22 01:42:00,
2013-02-21 20:47:00,18.3,12.0,29.50,WNW,288,0.0,2.0,76,0.00,,,0.00,meteohub,2013-02-22 01:47:00,
2013-02-21 20:52:00,18.3,11.7,29.51,North,356,0.0,2.0,75,0.00,,,0.00,meteohub,2013-02-22 01:52:00,
2013-02-21 20:57:00,18.3,12.0,29.52,NW,305,0.0,3.0,76,0.00,,,0.00,meteohub,2013-02-22 01:57:00,
2013-02-21 21:02:00,18.3,12.0,29.52,NNW,338,0.0,3.0,76,0.00,,,0.00,meteohub,2013-02-22 02:02:00,
2013-02-21 21:07:00,18.3,12.0,29.52,SE,139,0.0,3.0,76,0.00,,,0.00,meteohub,2013-02-22 02:07:00,
2013-02-21 21:12:00,18.3,12.0,29.52,SSW,195,0.0,3.0,76,0.00,,,0.00,meteohub,2013-02-22 02:12:00,
2013-02-21 21:17:00,18.3,12.0,29.52,NW,323,3.0,3.0,76,0.00,,,0.00,meteohub,2013-02-22 02:17:00,
2013-02-21 21:22:00,18.3,12.0,29.52,ENE,76,0.0,3.0,76,0.00,,,0.00,meteohub,2013-02-22 02:22:00,
2013-02-21 21:27:00,18.1,11.8,29.53,NW,305,0.0,3.0,76,0.00,,,0.00,meteohub,2013-02-22 02:27:00,
2013-02-21 21:32:00,18.1,11.8,29.54,SW,236,0.0,3.0,76,0.00,,,0.00,meteohub,2013-02-22 02:32:00,
2013-02-21 21:37:00,18.1,11.8,29.54,SSW,198,1.0,2.0,76,0.00,,,0.00,meteohub,2013-02-22 02:37:00,
2013-02-21 21:43:00,18.0,12.0,29.54,SE,126,0.0,2.0,77,0.00,,,0.00,meteohub,2013-02-22 02:43:00,
2013-02-21 21:48:00,17.8,11.8,29.55,SW,228,0.0,2.0,77,0.00,,,0.00,meteohub,2013-02-22 02:48:00,
2013-02-21 21:53:00,17.8,11.8,29.55,West,281,0.0,3.0,77,0.00,,,0.00,meteohub,2013-02-22 02:53:00,
2013-02-21 21:58:00,17.8,11.8,29.55,NW,307,0.0,3.0,77,0.00,,,0.00,meteohub,2013-02-22 02:58:00,
2013-02-21 22:03:00,18.0,12.2,29.56,ENE,77,0.0,3.0,78,0.00,,,0.00,meteohub,2013-02-22 03:03:00,
2013-02-21 22:08:00,17.8,11.8,29.56,SE,141,0.0,2.0,77,0.00,,,0.00,meteohub,2013-02-22 03:08:00,
2013-02-21 22:13:00,17.8,12.0,29.56,NE,34,0.0,2.0,78,0.00,,,0.00,meteohub,2013-02-22 03:13:00,
2013-02-21 22:18:00,17.8,12.0,29.55,North,358,0.0,2.0,78,0.00,,,0.00,meteohub,2013-02-22 03:18:00,
2013-02-21 22:23:00,17.4,11.7,29.56,SSW,205,0.0,2.0,78,0.00,,,0.00,meteohub,2013-02-22 03:23:00,
2013-02-21 22:28:00,17.4,11.7,29.57,North,3,0.0,1.0,78,0.00,,,0.00,meteohub,2013-02-22 03:28:00,
2013-02-21 22:33:00,17.4,11.7,29.56,SSE,148,0.0,2.0,78,0.00,,,0.00,meteohub,2013-02-22 03:33:00,
2013-02-21 22:38:00,17.4,11.7,29.57,ESE,112,0.0,2.0,78,0.00,,,0.00,meteohub,2013-02-22 03:38:00,
2013-02-21 22:43:00,17.4,11.7,29.57,NNW,332,1.0,2.0,78,0.00,,,0.00,meteohub,2013-02-22 03:43:00,
2013-02-21 22:49:00,17.8,12.4,29.56,North,358,0.0,1.0,79,0.00,,,0.00,meteohub,2013-02-22 03:49:00,
2013-02-21 22:54:00,17.8,12.0,29.56,North,349,0.0,4.0,78,0.00,,,0.00,meteohub,2013-02-22 03:54:00,
2013-02-21 22:59:00,17.8,12.0,29.57,SW,217,1.0,4.0,78,0.00,,,0.00,meteohub,2013-02-22 03:59:00,
2013-02-21 23:04:00,17.8,12.0,29.57,SSE,163,1.0,4.0,78,0.00,,,0.00,meteohub,2013-02-22 04:04:00,
2013-02-21 23:09:00,17.8,12.4,29.58,ESE,103,0.0,2.0,79,0.00,,,0.00,meteohub,2013-02-22 04:09:00,
2013-02-21 23:14:00,17.8,12.4,29.58,East,81,0.0,2.0,79,0.00,,,0.00,meteohub,2013-02-22 04:14:00,
2013-02-21 23:19:00,17.6,12.2,29.57,East,81,0.0,1.0,79,0.00,,,0.00,meteohub,2013-02-22 04:19:00,
2013-02-21 23:24:00,17.4,12.0,29.57,West,277,0.0,1.0,79,0.00,,,0.00,meteohub,2013-02-22 04:24:00,
2013-02-21 23:29:00,17.6,12.6,29.57,WSW,240,0.0,1.0,80,0.00,,,0.00,meteohub,2013-02-22 04:29:00,
2013-02-21 23:34:00,17.8,12.7,29.57,WSW,240,0.0,2.0,80,0.00,,,0.00,meteohub,2013-02-22 04:34:00,
2013-02-21 23:39:00,17.6,12.6,29.57,SSW,201,0.0,2.0,80,0.00,,,0.00,meteohub,2013-02-22 04:39:00,
2013-02-21 23:44:00,17.4,12.4,29.58,SSW,203,0.0,2.0,80,0.00,,,0.00,meteohub,2013-02-22 04:44:00,
2013-02-21 23:50:00,17.4,12.4,29.58,SW,228,0.0,1.0,80,0.00,,,0.00,meteohub,2013-02-22 04:50:00,
2013-02-21 23:55:00,17.6,12.6,29.59,SW,222,0.0,1.0,80,0.00,,,0.00,meteohub,2013-02-22 04:55:00,